Wind_Speed
52 52 52 50 49 48 47 46 45 44 43 41 40 38 37 36 36 35 34 33 31 30 29 28 27 26 25 25 24 24 23 23 23 23 24 24 24 24 25 25 26 25 25 24 23 22 22 22 22 21 21 23 24 24 24 25 25 25 26 26 26 24 22 23 25 23 19 18 18 19 19 18 19 19 19 19 19 20 18 15 14 14 14 13 13
51 53 52 51 50 48 47 46 46 45 44 43 42 40 39 38 36 36 35 34 33 32 31 30 29 28 28 27 26 26 25 25 25 25 25 26 26 26 26 26 26 26 26 26 25 24 24 24 24 23 22 23 25 27 28 28 28 28 27 27 27 27 25 24 25 25 22 20 20 21 21 21 21 20 21 21 20 20 19 17 16 15 15 14 14
51 52 52 52 51 49 48 47 46 46 45 45 43 41 40 38 37 37 36 36 35 34 33 32 31 30 30 29 28 28 27 27 27 27 27 27 28 28 28 28 27 27 28 27 27 26 26 26 25 24 24 25 25 27 29 30 31 31 30 29 28 28 27 26 26 26 25 22 22 24 24 24 23 22 22 22 21 21 21 20 19 18 18 17 17
51 51 52 52 51 50 49 48 47 47 46 46 44 42 41 40 39 38 37 37 36 35 34 33 32 32 32 31 31 31 30 29 29 29 29 29 29 29 30 30 29 29 29 28 28 28 28 28 27 26 26 27 26 26 28 31 33 34 33 32 31 30 29 29 29 28 28 26 25 25 26 26 26 25 23 22 22 23 23 22 22 22 20 20 19
50 51 51 52 51 51 50 49 48 48 47 46 44 43 42 41 40 39 38 38 37 36 36 35 33 33 33 33 33 33 33 32 31 30 30 30 30 30 31 31 31 30 30 29 29 29 29 29 29 27 28 29 29 28 27 29 32 34 35 35 33 32 31 31 30 30 30 30 28 26 27 28 28 28 27 25 25 25 25 25 26 25 24 22 21
49 50 50 51 51 51 50 50 49 48 47 46 45 44 43 42 41 40 39 38 38 37 36 36 35 34 34 34 35 35 34 34 33 33 32 32 32 32 32 33 33 33 32 32 31 31 31 31 30 29 30 31 31 30 29 28 29 32 34 34 34 33 33 32 32 31 31 32 30 28 28 29 30 30 30 30 29 29 29 28 28 27 26 25 23
47 48 49 50 51 51 51 50 49 49 48 46 45 44 43 42 42 41 40 39 38 38 37 37 36 36 35 35 35 35 35 35 36 35 34 34 34 34 34 34 35 35 35 34 33 33 33 33 32 32 33 33 32 31 30 30 30 30 31 32 33 33 33 33 33 32 32 32 32 31 30 29 30 31 31 30 31 31 31 31 31 30 28 27 25
45 46 48 49 51 52 51 49 48 48 47 46 45 45 44 43 42 41 40 40 39 39 39 38 38 37 37 36 36 36 37 37 37 37 36 36 36 36 35 35 36 36 37 36 35 35 35 35 35 35 35 35 34 33 32 31 31 31 31 31 32 33 34 34 34 34 34 34 34 33 32 30 30 31 31 30 32 33 32 32 32 30 29 28 27
44 45 46 48 50 51 50 49 48 48 47 47 46 45 44 44 43 42 42 41 40 40 39 39 39 39 38 38 37 37 38 39 39 39 38 37 37 38 37 37 36 37 37 38 38 38 38 38 37 37 36 36 35 34 34 33 32 32 31 31 32 33 34 36 36 36 36 36 37 36 34 34 33 32 33 34 34 34 32 32 32 30 28 29 29
43 44 46 47 48 48 48 48 48 48 48 48 46 45 44 44 43 43 43 42 41 40 39 39 39 40 40 39 39 39 40 40 41 40 40 39 38 38 39 39 38 38 38 39 39 40 40 40 40 39 38 37 37 36 36 35 35 34 32 32 33 34 35 37 38 38 38 39 39 38 38 38 37 35 35 35 34 34 33 33 33 31 29 29 30
44 45 46 46 46 46 47 47 48 48 48 47 47 45 45 44 44 44 43 42 42 41 40 39 39 40 39 39 39 40 40 40 40 41 41 40 39 39 40 40 39 39 39 39 40 40 40 40 40 40 40 40 39 38 38 38 37 36 35 34 34 35 36 38 39 39 40 40 40 40 40 40 39 38 37 35 33 34 35 34 34 32 31 31 31
44 45 45 45 45 46 46 45 46 47 48 47 47 45 45 45 45 44 44 43 42 41 41 40 40 39 39 39 40 40 40 39 39 39 39 39 39 40 40 41 41 41 40 40 39 39 40 40 40 41 41 41 41 41 40 39 39 38 37 37 37 37 38 39 40 40 40 41 40 41 41 41 40 39 39 36 33 33 33 34 34 33 32 31 32
44 44 44 45 45 45 45 44 44 45 46 47 46 46 46 46 45 45 45 44 43 42 42 41 40 40 40 40 40 40 39 39 38 38 37 37 38 39 40 41 43 43 42 41 41 40 40 40 40 41 41 41 42 42 42 41 40 39 39 39 39 39 40 40 41 41 41 41 42 42 41 40 40 39 38 36 33 32 32 33 34 33 32 31 30
44 44 44 44 45 44 44 44 44 44 44 44 46 46 47 46 45 45 45 44 44 44 43 42 41 41 41 41 41 41 40 40 39 38 37 36 36 37 39 40 42 44 45 44 44 43 42 41 42 41 41 41 42 43 43 42 42 41 41 42 42 42 42 42 43 44 44 44 45 44 40 39 40 38 37 36 35 33 32 32 31 31 30 28 25
44 44 43 44 45 45 45 44 44 43 43 43 44 46 46 46 45 45 45 45 45 44 44 44 43 42 42 42 42 42 42 41 40 40 39 38 37 37 38 39 42 44 45 46 46 46 45 45 44 44 43 43 43 43 43 43 43 44 44 45 45 44 45 45 45 45 46 46 48 46 43 41 40 39 38 38 36 34 32 30 28 28 27 26 25
42 43 43 43 44 45 46 45 44 43 42 42 43 44 45 46 45 44 45 45 45 45 45 44 44 44 43 43 44 44 44 43 43 42 41 39 37 36 37 38 39 42 44 45 46 47 47 47 47 47 47 46 45 44 44 44 44 45 46 47 47 47 48 49 48 47 47 47 48 48 46 44 42 41 40 40 38 35 32 30 29 29 30 30 30
41 43 43 42 41 43 45 45 44 43 42 43 43 43 44 44 44 44 44 45 45 45 45 45 45 44 44 44 45 46 45 44 44 43 42 39 37 37 37 37 38 40 41 42 43 45 46 47 48 49 49 48 47 46 45 45 46 47 48 49 49 50 52 52 50 50 49 48 49 49 49 47 45 44 43 42 41 37 34 34 35 35 35 35 35
39 41 43 42 40 40 42 44 45 44 43 43 43 42 42 42 43 43 44 45 45 45 45 45 45 45 45 46 46 46 46 45 44 43 41 38 35 35 36 37 38 40 40 39 40 42 44 46 47 48 49 49 48 47 46 46 47 49 50 51 51 53 56 54 51 52 52 51 51 51 51 51 50 48 47 45 44 41 39 40 39 38 39 40 38
39 40 41 41 40 38 39 41 44 44 43 43 42 41 41 41 41 41 43 44 44 44 44 44 45 45 45 45 45 45 45 44 43 43 41 39 36 34 33 35 38 39 39 39 39 41 43 45 46 47 48 47 47 46 46 46 48 50 51 51 53 57 59 55 52 53 53 53 53 53 53 54 53 53 51 49 47 45 44 44 42 41 42 43 41
35 37 39 40 40 39 37 38 41 42 43 42 40 40 39 39 39 39 40 41 42 42 42 43 43 43 43 43 43 43 43 42 41 40 39 38 38 37 37 38 39 38 38 39 40 42 42 43 44 45 46 46 46 45 45 46 48 49 50 52 56 60 58 55 54 55 54 55 55 54 55 55 55 56 55 54 52 50 48 47 46 46 46 45 45
27 31 35 38 39 38 36 36 38 39 41 40 39 38 38 38 37 37 38 39 40 40 40 41 41 41 40 40 40 40 40 40 39 39 37 37 37 37 39 40 40 39 40 41 42 43 43 42 42 43 43 44 45 45 45 46 46 47 50 53 57 58 56 55 57 56 55 56 57 57 57 57 57 58 58 58 57 55 53 52 50 49 49 48 48
25 26 29 33 36 37 35 34 35 36 38 38 37 37 37 36 35 35 36 37 38 38 39 39 39 39 38 37 36 35 34 33 32 31 30 30 30 31 32 32 32 33 36 38 40 40 40 39 39 38 38 40 42 43 45 46 47 48 50 53 54 54 55 57 58 57 57 58 58 58 59 59 58 59 60 60 60 58 57 55 53 51 51 51 50
25 24 25 28 32 34 34 32 33 34 36 36 35 35 34 34 33 33 34 35 35 36 37 36 36 36 36 34 32 30 29 27 25 24 23 23 24 24 25 25 25 27 30 32 33 34 34 34 35 35 35 36 37 38 40 43 45 47 49 50 51 52 53 56 59 60 60 58 58 60 61 60 60 60 60 61 61 60 58 56 54 53 52 51 50
22 22 22 24 27 30 31 30 30 31 33 33 33 32 32 31 31 32 32 32 33 34 34 34 33 32 32 32 29 26 24 22 21 22 23 23 23 23 23 23 24 27 31 33 33 34 34 35 35 35 35 36 37 38 40 41 44 45 46 47 48 49 51 55 59 62 62 60 60 62 62 61 61 61 61 61 60 60 60 58 56 55 53 51 50
18 18 19 20 23 26 27 27 28 29 29 30 30 30 30 29 29 30 30 31 31 31 31 30 29 27 27 27 27 25 22 20 21 23 24 24 24 23 22 22 22 25 28 30 31 33 35 36 37 37 37 39 40 41 42 43 44 45 46 47 48 49 51 55 59 62 62 61 61 62 62 61 61 60 60 58 57 57 58 57 56 54 52 51 49
16 16 17 18 20 23 25 25 25 25 25 26 27 27 28 28 27 27 29 29 29 29 29 28 26 25 24 23 23 23 22 23 24 25 26 25 25 24 24 23 22 23 24 25 26 29 33 36 39 40 40 42 43 44 45 46 46 47 48 49 50 52 54 56 59 61 62 61 59 59 59 58 58 58 58 56 55 56 57 56 54 52 51 50 48
16 16 16 17 18 21 23 23 22 22 22 23 24 24 25 26 26 26 27 28 28 27 27 26 24 23 23 21 20 22 24 25 25 25 25 24 24 22 22 21 21 21 22 23 23 25 27 30 32 35 37 39 41 44 47 49 50 52 53 53 55 57 59 60 62 62 62 59 57 56 56 56 55 56 57 58 57 56 55 53 52 51 51 51 49
15 15 16 18 19 20 22 22 21 21 22 22 22 22 23 23 24 25 26 27 27 26 26 25 23 21 21 21 22 24 25 25 24 23 22 21 21 20 19 18 18 19 19 20 21 22 24 26 28 30 32 34 36 38 42 45 48 50 52 54 56 59 61 64 65 65 62 59 56 56 57 56 54 53 55 56 55 54 54 53 53 54 54 53 53
14 15 16 17 19 20 21 21 22 23 24 24 23 22 23 22 22 23 24 24 25 24 24 24 24 22 21 21 22 23 24 23 22 20 18 17 17 17 17 17 17 18 20 21 22 23 25 27 28 28 30 31 33 35 38 41 43 46 49 51 54 57 60 62 65 66 65 62 60 59 59 58 57 55 54 55 56 57 58 56 54 55 56 56 57
15 16 16 17 19 21 21 22 23 23 24 24 23 23 23 22 21 22 22 22 21 22 22 23 23 23 22 20 19 19 20 20 18 16 14 14 14 15 16 17 18 19 20 21 21 22 22 23 24 24 25 27 28 31 34 36 39 43 46 48 50 53 56 59 61 62 63 63 64 63 61 61 61 59 57 55 55 57 58 56 55 56 58 58 57
15 16 17 18 19 21 22 23 23 23 24 23 23 24 25 23 21 21 21 20 19 19 20 21 22 22 22 21 19 17 16 15 13 12 12 12 14 15 16 17 17 18 18 18 19 20 21 23 23 24 25 27 29 32 34 36 39 42 44 47 49 50 53 56 59 60 61 62 63 64 64 63 64 62 59 56 56 57 58 57 57 59 62 60 57
16 17 18 18 18 19 20 20 20 22 24 23 22 23 25 24 21 20 20 19 18 17 17 17 18 17 16 16 14 13 12 11 11 12 12 12 13 14 15 15 15 16 17 18 19 20 22 23 23 24 26 29 31 33 35 37 40 42 44 47 50 50 51 54 56 57 58 59 59 61 62 63 63 63 61 59 59 60 60 59 60 62 63 60 57
18 19 20 20 18 17 17 18 18 20 22 21 20 21 23 24 23 21 19 17 15 13 12 10 10 11 11 10 9 9 9 9 9 10 11 12 12 12 13 14 15 16 17 18 19 19 19 21 22 24 26 28 30 32 35 36 39 42 45 48 50 52 52 52 53 54 56 57 58 58 59 61 62 62 61 60 60 62 62 62 63 64 61 57 55
17 18 19 20 19 18 18 18 19 19 18 17 17 17 16 17 18 18 18 16 14 12 10 9 9 8 8 8 8 8 8 8 8 9 10 10 11 11 13 15 16 16 16 16 17 17 18 19 21 22 25 28 31 34 37 39 41 44 47 49 52 53 54 54 54 54 54 54 55 56 57 59 60 61 61 61 62 64 64 63 64 65 61 58 58
14 16 17 18 19 19 19 19 19 18 17 16 16 16 15 14 13 13 13 13 13 12 11 10 9 8 7 6 6 6 6 6 6 6 7 8 9 11 12 13 14 14 14 14 16 17 17 19 19 22 27 31 34 36 38 41 43 44 46 49 52 53 53 54 55 55 53 52 53 54 55 56 58 60 62 63 63 64 65 66 66 66 63 61 61
14 16 17 18 19 21 22 21 21 20 20 19 18 17 16 16 15 14 13 11 10 10 9 8 7 6 5 4 3 3 3 2 3 4 6 8 9 10 10 11 12 13 13 15 16 16 16 17 19 23 29 32 34 35 38 41 42 44 47 50 52 54 54 54 54 54 53 51 50 50 51 54 56 57 60 63 65 66 68 69 68 68 66 64 62
15 15 17 19 21 22 23 23 23 23 23 21 20 19 18 16 14 13 12 10 9 8 6 3 2 3 3 3 2 2 1 4 6 7 9 9 8 9 11 12 13 14 14 15 16 17 17 17 19 23 28 31 32 35 38 39 41 44 47 49 52 54 54 52 50 50 50 50 49 47 48 51 53 56 58 62 66 68 69 69 68 66 65 64 63
13 14 16 19 21 21 21 21 20 20 19 18 18 18 17 16 14 11 9 9 8 7 6 5 4 3 2 3 4 4 5 7 9 10 10 9 10 12 14 15 16 16 16 16 16 16 17 17 18 22 27 28 30 33 36 37 38 41 44 48 51 53 53 50 46 43 44 47 48 45 44 45 47 51 55 59 63 65 65 66 67 65 62 61 62
17 19 19 20 20 20 20 20 20 19 19 17 17 16 16 15 13 12 11 10 9 6 5 3 2 2 1 3 6 7 8 9 10 9 8 8 10 14 16 17 18 17 17 16 15 15 15 16 17 21 24 25 27 29 31 34 37 40 41 45 48 51 51 49 44 38 37 40 42 42 42 42 42 46 51 57 65 70 67 63 62 63 63 61 59
20 21 20 19 20 20 20 22 22 22 21 21 21 20 18 16 14 13 12 12 11 9 7 6 5 5 3 4 6 8 8 7 8 8 7 8 12 15 17 18 18 17 16 17 15 13 13 14 15 18 21 22 23 24 26 31 36 38 40 42 43 45 48 47 40 30 27 31 36 38 38 37 37 40 45 48 52 58 66 69 65 61 61 60 56
19 20 21 21 21 21 20 21 21 20 20 20 20 19 18 16 14 12 11 12 12 12 12 12 10 8 6 6 5 5 5 6 7 8 9 11 14 16 17 18 17 15 16 17 15 12 12 12 14 16 18 19 21 23 24 28 32 33 36 38 36 36 44 47 38 26 19 20 27 32 34 36 35 33 37 44 40 35 44 55 58 55 55 54 51
19 21 22 22 22 21 19 19 18 17 17 16 16 15 15 14 13 11 10 10 11 11 11 12 11 8 5 4 3 3 5 7 8 9 11 13 15 16 16 16 16 14 15 15 14 12 11 10 12 14 15 17 20 23 23 25 27 28 30 34 34 35 42 48 44 37 32 24 14 8 5 8 10 7 13 26 34 35 34 37 42 46 46 43 39
20 21 21 20 20 19 18 16 15 14 14 13 12 12 11 11 11 11 10 10 10 9 8 8 7 6 4 2 2 4 6 8 9 10 13 14 14 14 14 15 15 14 14 13 11 10 9 8 10 12 13 14 17 20 21 22 24 23 24 29 32 33 38 44 44 43 43 42 40 41 42 36 31 33 36 35 37 41 39 36 37 39 37 32 27
20 19 18 17 17 16 15 13 12 11 11 9 8 8 8 8 8 8 9 9 9 8 8 7 6 5 4 4 6 7 8 9 11 12 13 13 12 12 14 15 14 13 12 11 10 8 7 7 9 10 11 12 14 17 18 20 21 21 20 22 26 28 31 34 34 33 33 34 35 37 40 42 42 40 38 39 39 38 34 31 30 29 26 22 20
19 18 16 15 15 14 12 10 9 8 7 6 5 5 5 5 6 6 6 6 6 5 5 5 6 6 6 8 9 8 8 10 11 12 12 12 11 12 12 12 12 11 11 10 9 8 7 8 8 9 10 11 13 14 16 18 20 20 20 20 22 24 26 27 28 27 25 24 25 26 26 28 30 30 29 29 29 27 25 23 22 21 20 19 18
18 16 15 14 13 13 11 9 7 6 6 6 6 5 5 5 4 4 4 3 1 0 1 3 4 4 5 6 7 7 8 8 7 8 9 10 12 13 12 10 10 10 10 10 10 10 10 10 10 10 11 11 12 12 13 15 17 18 19 20 20 21 22 22 24 25 25 23 23 24 25 25 26 26 26 26 26 25 24 23 22 21 19 17 17
17 16 15 14 13 14 13 12 12 12 13 13 13 12 12 12 11 10 9 8 7 7 6 6 5 5 4 4 4 4 4 3 3 4 5 8 12 14 12 9 9 10 10 9 9 10 11 12 12 13 12 12 12 13 13 14 15 16 17 18 19 20 20 20 20 22 23 24 24 25 27 28 28 27 27 26 26 24 22 20 18 17 17 17 19
16 16 15 14 13 14 15 16 16 16 17 17 17 17 16 15 14 13 13 12 12 11 11 9 8 7 5 4 2 1 1 1 1 2 3 5 8 10 10 10 9 10 10 9 9 9 9 10 12 13 12 12 12 13 13 13 14 14 15 17 19 19 18 18 19 19 18 18 20 22 24 25 25 25 23 22 20 18 16 16 16 17 17 17 18
16 16 15 15 15 16 17 17 18 18 17 17 18 19 19 18 17 16 15 14 14 14 13 11 10 8 7 5 3 1 1 1 1 1 1 2 3 6 8 9 9 9 10 9 8 8 8 9 10 10 9 9 10 11 10 11 12 14 15 17 18 18 18 17 17 17 16 15 14 14 14 15 16 16 15 14 14 14 14 15 16 16 15 15 16
17 18 18 18 19 19 18 18 18 18 18 18 18 18 19 19 19 18 17 16 16 15 15 14 13 11 9 8 6 4 3 2 1 1 2 1 1 4 6 6 6 7 8 8 7 7 7 9 9 8 7 7 7 7 7 8 10 13 14 15 15 16 16 16 15 14 14 12 11 9 8 8 8 8 8 9 9 11 12 13 13 14 15 15 16
24 24 24 23 22 21 20 20 19 19 18 18 17 17 17 18 19 18 18 18 17 17 16 16 15 14 13 12 10 9 7 6 5 4 3 2 0 2 4 4 4 4 4 5 5 4 5 7 7 6 5 5 5 5 6 8 10 11 12 12 12 12 13 13 13 12 11 9 8 7 5 4 3 4 5 6 7 9 10 11 12 13 14 15 16
Wind_Direction
217 217 219 220 222 223 223 224 224 224 224 224 224 225 225 226 227 229 230 231 231 230 230 229 228 229 231 233 236 235 235 236 236 234 231 230 232 233 235 236 237 240 241 243 243 242 243 245 244 243 240 236 235 232 228 227 230 230 231 233 237 240 240 239 241 245 242 235 232 232 234 239 244 248 251 256 261 268 270 262 255 256 258 262 265
218 219 219 220 222 224 225 225 224 224 225 225 226 226 226 226 227 228 230 232 232 232 231 231 230 230 231 233 236 238 239 239 239 238 236 234 234 235 236 236 237 239 241 242 244 244 244 245 246 245 244 242 240 238 236 233 234 236 238 238 239 240 242 242 242 244 244 239 235 235 236 239 243 247 250 254 258 263 266 263 261 263 262 261 262
220 220 220 221 222 224 225 226 225 225 225 225 227 227 227 227 227 228 230 231 233 234 233 231 231 231 232 233 234 238 241 242 242 242 241 238 237 238 238 238 238 239 241 243 244 245 245 246 247 246 246 246 244 242 240 239 239 241 242 244 244 243 243 243 244 245 247 243 240 241 243 244 245 247 249 253 257 261 264 266 268 268 265 261 259
220 220 220 221 222 223 224 225 226 225 226 226 228 228 228 228 228 229 230 231 232 234 235 233 231 231 233 234 234 236 239 242 244 244 245 243 242 241 240 241 241 242 243 244 245 246 247 247 248 248 247 248 248 245 243 242 242 244 245 247 248 247 247 246 246 247 249 247 242 241 243 247 249 249 249 250 254 258 262 266 268 269 268 265 260
219 219 221 222 222 223 223 225 226 226 227 227 229 229 229 229 230 229 230 231 232 234 235 235 232 231 233 235 236 238 239 241 243 245 246 246 245 244 243 242 244 245 245 246 247 248 250 250 251 250 249 249 250 249 248 245 245 246 247 249 250 251 250 250 250 249 249 250 247 242 240 242 245 247 248 248 250 254 258 261 263 266 267 265 261
218 219 220 221 222 223 224 225 226 227 228 228 229 230 229 230 231 231 230 231 232 233 234 235 235 234 234 236 237 239 241 242 244 246 247 247 246 246 245 245 245 246 247 248 248 249 250 252 253 252 252 251 252 252 252 251 249 247 248 250 252 252 252 252 252 252 251 252 252 248 243 241 242 243 244 246 248 251 255 257 260 263 264 262 260
219 220 221 221 222 223 225 226 227 228 229 229 229 230 230 230 230 231 232 232 232 233 235 236 237 238 238 238 238 239 241 243 245 246 246 246 246 246 247 247 247 247 248 249 250 250 250 252 253 253 254 254 254 254 254 254 253 252 251 251 252 252 253 253 253 252 253 253 253 252 248 245 244 244 245 246 247 250 253 255 257 259 261 261 260
219 220 221 222 222 224 226 227 228 229 230 230 229 230 230 230 230 231 232 233 233 235 236 237 239 240 241 241 241 240 241 243 243 244 244 245 246 246 247 248 249 249 249 249 250 251 251 251 252 253 254 256 256 257 257 256 256 256 256 254 252 251 252 253 253 252 253 254 254 254 252 248 246 246 245 243 243 247 251 253 256 259 261 262 262
219 220 221 222 223 225 226 226 227 228 229 229 230 230 230 230 230 231 232 234 236 237 237 237 238 240 242 242 242 241 242 243 243 243 244 244 245 246 247 248 249 251 251 250 251 252 252 252 253 253 254 256 257 258 259 259 258 258 259 257 255 253 252 252 251 251 252 252 253 253 251 250 247 245 243 242 244 249 253 254 256 259 260 260 260
219 219 220 222 224 225 226 226 226 226 227 229 230 230 230 230 229 230 232 235 237 238 237 237 238 239 240 241 242 242 243 244 244 244 245 246 246 247 246 247 249 251 252 252 252 253 254 254 255 255 255 255 256 257 259 259 259 259 260 260 258 256 254 252 251 251 250 251 252 252 251 252 252 248 246 247 250 252 251 252 255 258 258 256 256
219 220 221 223 224 225 226 226 225 226 227 228 230 230 230 230 229 230 231 233 236 237 237 238 238 238 239 240 241 243 244 246 246 246 246 246 247 247 247 248 250 251 252 253 254 256 256 256 257 257 255 255 255 256 257 258 259 259 259 259 258 258 257 255 253 252 251 251 253 252 252 255 258 255 252 250 250 250 251 252 253 253 253 254 255
220 221 222 223 225 226 226 226 226 226 227 227 229 230 231 230 230 229 230 232 234 236 237 239 240 239 239 239 241 244 247 248 248 248 247 247 247 247 247 248 249 250 252 254 256 258 258 258 258 257 257 257 257 256 256 257 258 259 259 259 259 258 258 258 257 255 253 252 253 253 254 257 260 259 257 254 250 251 252 251 250 250 251 252 254
220 223 223 223 225 226 227 228 228 227 227 227 228 229 230 230 230 229 231 232 232 234 237 239 241 240 239 239 242 245 249 251 250 249 249 248 247 247 247 248 249 250 252 255 257 258 259 259 258 258 258 259 259 257 257 257 257 257 258 259 258 258 258 259 259 258 256 255 254 255 257 259 260 261 262 259 254 251 250 250 250 249 249 250 254
220 223 224 224 225 227 228 229 230 230 229 228 227 228 229 230 230 230 231 231 231 233 236 238 240 241 240 240 243 247 249 251 252 251 251 250 249 248 248 249 249 250 251 254 256 257 258 259 259 260 260 260 260 258 257 257 257 256 256 256 256 257 258 258 258 256 255 254 254 254 256 258 260 263 264 261 256 252 250 251 252 251 250 252 255
220 223 225 225 225 226 227 229 231 232 232 230 228 228 229 230 231 230 230 230 232 234 236 237 239 241 242 242 243 246 248 250 251 252 252 252 251 250 249 250 250 251 252 253 255 256 257 257 258 260 261 261 262 261 259 258 258 258 257 256 257 258 258 259 259 257 255 255 256 256 258 258 260 262 262 259 257 255 253 254 256 256 254 252 251
222 224 226 227 226 226 227 228 230 231 232 231 231 230 230 230 231 231 230 231 233 234 236 237 239 241 242 242 243 244 247 248 250 251 252 252 251 250 250 251 252 252 253 254 255 256 257 256 257 258 259 260 261 261 260 259 258 258 258 258 259 259 260 262 262 260 259 260 261 261 261 261 261 261 260 258 257 253 250 248 248 247 245 244 244
224 225 226 228 228 227 227 227 229 230 231 232 232 232 232 232 231 231 231 231 231 233 235 237 238 239 240 241 243 245 245 246 248 250 251 251 251 250 250 251 253 254 255 255 256 257 258 258 258 258 258 259 259 260 259 258 257 258 258 259 259 259 262 263 261 259 259 260 262 263 262 261 260 259 258 256 255 250 242 238 237 235 235 236 237
226 226 227 229 230 230 229 227 227 229 231 232 234 233 233 234 233 232 232 232 232 233 234 236 237 238 239 240 243 245 246 246 247 248 249 250 251 252 252 253 255 257 258 258 257 258 259 259 259 259 259 260 260 260 259 257 256 257 258 258 257 258 262 261 258 258 258 257 258 259 259 258 257 256 255 253 252 247 239 236 234 232 230 231 232
228 228 229 230 231 231 231 229 228 228 230 232 234 234 235 235 235 234 234 234 235 234 234 235 236 238 239 240 242 244 246 247 248 248 249 249 251 253 255 255 256 258 258 260 261 262 262 261 260 260 259 260 261 261 260 258 257 257 257 256 256 259 262 260 257 258 258 256 256 257 256 256 254 253 252 250 248 245 241 238 235 232 230 230 230
230 231 230 231 232 232 233 231 229 229 229 230 233 235 236 236 235 235 236 236 236 236 235 236 237 238 240 241 242 244 245 247 249 249 250 250 250 253 254 256 258 259 259 260 262 263 263 264 263 263 262 261 260 260 261 260 259 259 258 255 256 260 262 261 259 260 258 258 259 259 258 256 254 251 249 248 246 244 241 238 235 233 232 231 229
234 233 232 232 232 232 233 232 230 230 230 230 232 234 236 236 236 236 236 236 237 237 237 237 238 239 241 242 243 245 246 249 250 251 252 253 253 254 255 256 259 261 262 264 264 264 265 266 267 267 267 266 264 262 261 261 261 261 259 257 259 263 264 262 262 261 259 258 259 258 257 255 251 248 246 244 243 242 240 237 236 235 234 232 230
236 234 233 233 232 232 233 232 229 229 229 229 230 232 235 237 237 237 237 237 238 238 238 238 238 239 241 242 244 247 248 250 252 253 253 254 253 253 254 256 258 259 261 262 263 264 265 266 268 270 271 271 270 268 267 265 264 263 262 263 264 265 264 263 262 260 257 256 255 255 254 251 248 246 244 242 241 240 238 236 235 235 236 236 235
234 233 232 233 233 232 232 231 229 227 227 228 229 231 234 236 237 237 237 237 237 237 238 239 239 239 239 240 243 246 249 253 255 255 255 255 254 254 255 257 259 259 259 261 263 265 267 269 271 273 274 275 275 274 273 271 268 267 266 267 267 267 266 264 261 258 255 253 251 251 251 249 246 245 243 242 241 239 237 235 234 235 236 237 238
229 228 228 231 232 231 230 229 228 225 225 227 228 231 233 235 236 237 236 236 236 236 237 238 238 237 237 237 238 240 244 249 251 252 253 254 255 256 257 258 258 258 260 262 264 266 266 267 269 270 272 273 274 274 274 274 273 273 272 271 271 269 267 264 261 258 254 251 250 249 249 248 247 246 246 245 243 241 239 236 233 233 234 235 236
220 221 222 224 227 228 227 226 225 224 224 226 228 230 231 232 233 234 234 233 233 234 235 235 235 235 235 233 232 233 236 240 242 243 245 247 249 252 255 256 255 255 257 260 264 265 265 265 266 267 268 269 270 271 272 272 273 274 274 274 274 271 268 265 262 258 254 251 249 249 249 249 249 250 251 249 244 241 239 237 233 231 231 233 234
213 217 218 219 221 223 223 222 221 221 223 226 228 230 230 231 230 230 230 230 231 232 232 232 232 232 231 230 230 230 233 236 238 240 242 245 248 251 253 254 254 255 257 260 262 264 266 267 267 268 268 268 268 269 271 272 272 272 272 272 272 271 269 266 264 260 256 254 252 251 251 252 252 252 252 249 244 240 237 235 232 229 228 229 228
210 212 212 212 214 216 218 217 215 215 217 220 224 227 229 230 229 227 226 225 225 226 227 227 226 226 225 226 227 227 229 232 236 239 243 246 249 250 252 254 256 258 260 262 264 265 267 268 269 271 272 272 271 271 272 273 273 273 273 273 272 272 271 270 268 264 259 256 255 255 255 256 255 254 251 247 243 239 235 232 231 228 227 226 225
200 200 202 204 207 209 211 212 209 206 207 210 214 218 222 224 224 223 223 222 221 221 221 222 223 223 222 223 223 224 227 231 234 238 242 245 247 249 253 257 261 263 266 269 272 275 276 277 278 279 280 281 280 279 278 278 278 278 278 277 276 276 275 274 272 268 263 259 258 259 259 258 255 252 248 244 240 235 231 230 231 230 228 224 222
191 195 198 201 203 202 201 204 204 200 199 201 204 207 210 213 215 217 218 219 220 220 219 219 221 222 220 219 221 223 223 224 226 229 233 238 244 251 258 265 271 276 279 281 283 284 285 286 287 287 287 287 286 285 284 284 283 282 281 281 280 280 279 278 276 274 271 268 266 265 263 257 253 250 246 242 238 233 229 228 229 229 226 222 220
187 189 192 196 198 196 195 197 199 198 198 200 202 201 201 204 210 214 215 215 217 219 219 219 220 221 218 212 211 214 216 216 220 226 231 241 254 263 271 277 282 284 286 288 290 290 290 291 293 294 295 295 294 293 292 291 290 288 287 286 285 285 283 281 279 278 275 272 269 267 263 255 249 246 243 239 234 228 224 225 228 226 222 219 218
187 184 184 187 191 193 194 194 194 196 198 201 203 201 196 194 197 203 203 201 202 205 207 208 208 209 211 209 206 209 215 221 230 241 251 262 271 277 280 282 283 284 286 289 292 295 298 299 301 303 304 305 306 305 303 302 300 297 295 293 292 290 287 284 282 280 275 270 267 265 262 254 247 242 239 236 230 221 218 222 225 222 218 217 216
184 178 178 181 184 189 191 190 190 192 194 197 199 199 194 187 182 184 186 186 187 187 188 194 196 197 204 211 215 219 227 237 249 259 265 270 273 275 278 280 282 287 292 295 298 300 301 304 309 312 313 313 313 312 310 309 306 304 302 300 298 296 292 288 284 280 275 270 266 262 259 254 247 242 238 234 227 219 216 218 217 215 214 214 212
176 172 172 174 176 178 179 178 179 182 184 185 186 188 189 185 177 173 173 175 179 179 177 184 193 197 203 213 221 227 231 238 250 258 265 270 273 277 281 285 290 295 297 298 299 299 303 310 318 322 322 322 323 322 319 318 316 314 312 309 306 303 300 295 289 282 276 272 268 263 259 255 248 241 235 230 224 219 216 214 212 211 210 206 204
175 171 170 170 169 167 166 167 167 166 165 167 168 169 173 177 176 173 169 166 165 166 169 173 179 183 189 197 206 216 222 230 242 252 262 270 276 284 290 293 297 298 298 299 301 307 318 326 329 330 334 336 336 332 328 325 322 320 318 316 312 308 304 300 293 285 279 275 270 265 260 256 250 242 233 226 221 219 216 212 209 207 205 202 200
171 171 173 173 166 159 156 157 159 158 153 151 151 149 146 146 149 155 158 158 156 156 160 166 169 171 177 188 203 213 216 224 236 249 266 278 285 291 294 296 299 303 308 314 317 324 334 337 335 338 343 343 339 334 331 330 329 327 326 323 319 313 308 302 294 287 282 278 272 267 262 258 253 246 237 227 220 217 214 211 207 205 203 201 199
160 162 167 169 161 152 148 146 144 142 139 136 133 132 131 130 130 133 136 141 146 150 155 163 168 165 162 160 168 180 191 228 261 277 290 294 294 298 303 310 316 319 324 326 326 329 337 337 336 342 345 343 339 337 337 338 338 335 332 329 324 319 313 306 297 289 283 279 274 270 264 258 254 249 241 232 224 218 213 210 207 204 202 199 195
155 156 156 156 153 148 145 143 141 139 138 135 132 130 129 128 131 135 134 134 137 136 130 118 106 115 115 89 64 65 15 338 323 313 309 308 313 325 333 335 333 330 328 327 326 328 330 330 334 341 345 343 342 345 348 347 344 342 341 339 334 328 321 312 302 292 284 280 276 272 266 260 256 252 244 234 225 219 213 208 204 200 197 195 192
146 148 147 145 143 141 138 136 136 135 135 135 136 136 133 129 127 125 118 120 120 101 69 50 44 53 54 19 1 350 338 331 323 319 322 324 326 334 339 337 332 327 326 327 328 326 324 327 335 343 344 343 346 354 358 357 355 354 354 351 346 339 331 322 310 298 287 281 277 273 270 265 259 254 247 237 226 218 210 203 197 192 189 189 188
124 126 129 130 129 128 126 126 127 127 127 127 130 132 130 128 125 118 110 113 113 89 67 82 103 89 47 326 318 314 314 314 312 313 322 323 320 326 331 328 323 320 321 324 328 325 322 328 339 344 343 342 348 358 5 6 5 5 1 356 352 349 342 331 320 306 293 284 280 278 275 271 266 262 255 241 227 217 208 198 191 187 185 184 184
127 127 128 129 129 128 128 129 131 133 130 127 127 128 128 129 131 128 120 117 113 100 92 94 84 60 31 344 327 321 316 311 306 303 305 307 312 318 320 316 314 314 317 322 326 325 326 335 344 344 341 342 347 355 2 4 5 7 7 4 2 359 355 349 339 325 308 293 285 284 282 278 277 273 260 241 223 210 200 191 186 184 181 178 178
135 131 129 130 133 134 132 128 129 132 133 130 129 129 130 134 140 140 130 120 115 107 99 92 83 68 50 34 17 349 317 301 297 296 296 302 308 310 308 309 312 313 315 319 325 327 330 340 347 342 337 340 346 349 351 355 360 5 13 19 20 18 16 13 7 358 341 308 285 280 279 277 276 270 250 232 218 198 182 176 172 169 168 167 168
130 126 124 126 130 133 130 126 126 131 134 135 134 131 131 137 143 145 143 138 134 126 118 113 110 105 91 70 38 331 301 294 293 292 294 301 306 305 306 313 319 318 317 322 328 332 336 346 348 340 333 337 344 346 350 357 4 11 22 32 39 42 40 38 36 38 40 39 36 37 6 268 241 197 179 187 182 167 152 144 141 142 145 149 151
124 121 121 123 125 125 125 127 133 136 135 137 140 139 139 147 152 153 156 161 163 163 158 149 144 143 146 171 239 276 287 290 291 296 303 308 311 312 315 321 322 320 322 328 330 332 340 346 345 338 331 333 341 349 355 2 10 18 28 36 42 50 54 53 52 53 55 58 63 68 69 73 84 89 88 95 112 123 126 122 120 123 127 130 134
121 118 120 123 123 123 124 128 134 136 134 140 150 151 153 160 163 163 168 174 182 191 194 194 200 209 220 247 263 273 287 294 300 307 314 318 318 319 323 328 327 326 330 334 334 335 341 340 337 338 335 332 339 351 359 1 5 14 25 31 35 41 48 52 54 56 59 61 64 66 67 68 72 76 78 79 85 93 101 103 105 111 118 124 131
115 114 117 120 120 120 120 120 123 129 139 157 173 179 184 188 187 187 190 195 205 217 225 238 253 259 266 276 281 290 305 314 320 327 331 332 333 335 339 344 347 346 347 348 350 352 347 337 335 342 342 336 337 349 0 1 1 8 21 29 31 32 35 40 44 47 49 53 57 60 66 75 81 84 85 88 92 98 103 104 102 106 115 125 139
113 113 114 114 113 110 109 109 111 114 120 127 133 132 128 129 130 128 127 124 124 309 321 318 315 319 319 308 304 310 318 327 344 354 350 350 355 359 3 7 6 3 4 5 6 3 352 342 342 347 347 344 341 345 354 360 359 2 13 24 29 31 34 37 40 42 45 50 57 62 67 78 89 95 99 101 105 109 113 112 111 114 124 142 165
118 117 115 113 110 106 104 105 106 103 101 100 98 95 91 89 86 82 76 68 60 53 46 39 35 30 14 351 332 320 314 324 358 356 351 3 11 9 9 17 20 16 13 9 2 356 350 344 345 347 347 348 349 346 348 358 2 2 5 14 21 28 34 40 44 47 51 57 65 71 75 79 83 88 95 100 103 106 113 121 131 144 160 173 182
119 118 116 114 111 109 108 107 104 98 95 94 91 87 84 81 76 72 68 63 60 58 57 57 59 57 44 25 9 321 225 207 250 306 336 21 25 14 15 26 27 16 9 0 347 343 346 348 350 351 350 351 353 353 353 1 8 7 5 8 13 19 26 34 42 47 53 61 68 73 79 85 89 93 97 101 104 111 127 148 162 171 176 178 181
117 117 115 111 107 105 103 100 95 91 90 91 91 89 86 81 76 72 69 65 61 59 58 57 56 53 45 36 31 40 185 216 290 314 6 64 35 15 20 29 24 11 6 358 342 338 346 351 351 353 358 1 2 2 5 12 19 19 16 13 13 15 18 24 31 38 44 53 64 71 77 86 97 106 114 121 128 138 152 166 173 177 184 189 192
105 105 105 104 101 100 98 96 93 89 86 85 86 87 87 86 82 79 77 72 67 61 57 54 53 51 48 43 40 47 64 74 79 136 170 175 351 357 4 11 15 15 14 5 351 352 9 16 12 9 14 18 18 19 24 31 35 34 29 22 18 17 17 18 21 26 31 37 47 57 66 80 99 116 129 139 147 156 165 174 180 188 196 201 201
91 92 94 95 96 97 98 98 96 93 90 86 84 83 84 85 86 85 83 79 76 71 65 60 57 55 54 52 50 50 55 62 76 105 139 159 115 355 354 357 11 25 22 6 356 6 31 39 42 47 49 46 48 56 57 53 50 47 40 31 21 15 13 13 14 16 18 21 25 31 40 55 87 129 149 160 170 178 181 184 188 193 199 203 204
Height
1494 1497 1499 1501 1504 1506 1509 1512 1514 1517 1520 1522 1524 1527 1529 1531 1533 1536 1538 1540 1542 1544 1546 1548 1550 1551 1553 1554 1556 1557 1559 1560 1562 1563 1564 1565 1566 1568 1569 1570 1570 1571 1572 1573 1574 1575 1576 1577 1578 1579 1580 1581 1581 1581 1582 1582 1582 1583 1583 1583 1583 1584 1584 1584 1583 1583 1584 1585 1584 1584 1584 1585 1585 1585 1585 1586 1586 1586 1586 1586 1585 1585 1585 1585 1585
1490 1493 1495 1498 1500 1503 1506 1508 1511 1514 1516 1519 1521 1523 1526 1528 1531 1533 1535 1537 1539 1541 1543 1545 1547 1548 1550 1552 1553 1554 1556 1557 1559 1560 1561 1562 1563 1564 1566 1567 1568 1569 1569 1570 1571 1572 1573 1574 1575 1576 1577 1578 1579 1579 1579 1579 1579 1579 1580 1580 1581 1581 1581 1582 1581 1581 1582 1582 1582 1582 1582 1582 1582 1582 1583 1583 1583 1584 1583 1583 1583 1583 1583 1583 1583
1486 1489 1492 1495 1497 1500 1503 1506 1509 1511 1513 1515 1518 1520 1523 1525 1528 1530 1532 1534 1536 1538 1540 1542 1544 1545 1547 1549 1550 1551 1553 1554 1555 1556 1557 1558 1559 1561 1562 1563 1565 1566 1566 1567 1568 1569 1570 1571 1572 1573 1574 1574 1575 1576 1576 1576 1576 1576 1577 1577 1578 1578 1579 1579 1579 1578 1579 1580 1580 1580 1579 1579 1579 1580 1580 1580 1581 1581 1580 1580 1580 1580 1580 1580 1580
1483 1486 1489 1491 1494 1497 1500 1503 1506 1508 1510 1512 1514 1517 1519 1522 1524 1527 1529 1531 1533 1534 1537 1539 1541 1543 1544 1546 1547 1548 1549 1550 1552 1553 1553 1555 1556 1557 1558 1559 1561 1562 1563 1564 1565 1566 1566 1567 1568 1569 1570 1570 1571 1572 1573 1573 1573 1573 1573 1574 1574 1575 1576 1576 1576 1576 1576 1577 1577 1578 1578 1577 1577 1577 1578 1578 1577 1577 1577 1577 1577 1577 1577 1577 1577
1480 1483 1485 1488 1492 1494 1497 1500 1502 1504 1507 1509 1511 1514 1516 1519 1521 1523 1525 1527 1530 1531 1533 1536 1538 1539 1541 1542 1543 1544 1545 1547 1548 1549 1550 1551 1552 1553 1554 1556 1557 1558 1559 1560 1561 1562 1563 1563 1564 1565 1566 1566 1567 1568 1569 1569 1569 1569 1569 1570 1571 1572 1573 1573 1573 1573 1573 1573 1574 1575 1576 1575 1575 1574 1574 1574 1574 1574 1573 1573 1573 1574 1574 1574 1574
1478 1480 1483 1485 1488 1491 1493 1496 1498 1500 1503 1505 1508 1511 1513 1515 1517 1520 1522 1524 1526 1528 1530 1532 1533 1535 1537 1538 1539 1540 1542 1543 1544 1545 1546 1547 1549 1550 1551 1552 1553 1554 1555 1556 1557 1558 1559 1559 1560 1561 1562 1562 1562 1563 1564 1565 1566 1566 1566 1566 1567 1568 1569 1569 1570 1570 1570 1570 1570 1571 1572 1572 1572 1571 1571 1571 1571 1571 1570 1570 1570 1570 1570 1570 1570
1475 1478 1480 1482 1485 1487 1489 1491 1494 1496 1499 1502 1505 1507 1510 1512 1514 1516 1519 1521 1523 1525 1526 1528 1529 1531 1533 1534 1535 1537 1538 1539 1540 1541 1542 1544 1545 1546 1547 1548 1549 1550 1551 1552 1553 1554 1554 1555 1556 1557 1557 1557 1558 1559 1560 1561 1562 1562 1563 1564 1564 1565 1565 1565 1566 1566 1566 1566 1566 1566 1567 1568 1568 1567 1568 1568 1568 1568 1567 1567 1566 1566 1567 1567 1567
1472 1474 1476 1478 1480 1482 1484 1487 1490 1492 1495 1498 1501 1504 1506 1508 1510 1513 1515 1517 1519 1520 1522 1524 1525 1527 1528 1530 1532 1534 1534 1535 1536 1537 1539 1540 1541 1542 1543 1544 1545 1546 1546 1547 1548 1549 1550 1551 1551 1552 1553 1553 1554 1555 1556 1558 1558 1559 1560 1561 1561 1561 1561 1561 1561 1561 1561 1561 1560 1561 1562 1563 1563 1563 1564 1565 1564 1562 1562 1563 1562 1563 1563 1563 1564
1468 1470 1472 1473 1475 1478 1481 1484 1486 1489 1492 1494 1497 1500 1502 1504 1507 1509 1511 1512 1514 1516 1518 1520 1522 1523 1525 1526 1528 1530 1530 1530 1531 1533 1534 1536 1537 1538 1539 1540 1541 1542 1542 1543 1544 1544 1545 1546 1546 1547 1548 1549 1550 1551 1552 1554 1554 1555 1556 1557 1557 1557 1557 1557 1557 1556 1556 1555 1555 1556 1557 1557 1557 1558 1559 1558 1557 1557 1558 1559 1559 1559 1561 1561 1561
1463 1465 1467 1469 1471 1475 1477 1480 1483 1485 1487 1489 1492 1495 1498 1500 1502 1504 1506 1508 1510 1512 1515 1517 1518 1519 1521 1522 1524 1525 1525 1526 1527 1529 1530 1532 1533 1534 1535 1536 1537 1538 1538 1539 1539 1539 1540 1541 1541 1543 1544 1545 1546 1547 1548 1549 1550 1551 1552 1553 1553 1553 1553 1552 1552 1552 1552 1551 1550 1551 1551 1550 1550 1552 1552 1553 1553 1554 1555 1556 1555 1556 1558 1558 1557
1459 1461 1463 1465 1468 1471 1473 1476 1479 1481 1483 1485 1488 1490 1493 1496 1498 1500 1502 1504 1507 1509 1511 1513 1513 1515 1517 1518 1519 1520 1520 1522 1523 1525 1527 1528 1530 1531 1531 1532 1532 1533 1534 1535 1535 1535 1536 1537 1537 1538 1539 1540 1542 1542 1543 1544 1545 1546 1547 1548 1548 1548 1547 1547 1547 1547 1547 1546 1546 1547 1546 1545 1545 1547 1548 1549 1551 1551 1551 1551 1552 1553 1553 1553 1553
1456 1458 1460 1463 1465 1467 1470 1472 1474 1477 1479 1481 1483 1486 1489 1492 1494 1497 1499 1501 1503 1505 1507 1508 1510 1511 1512 1513 1515 1515 1516 1517 1519 1521 1523 1525 1526 1527 1528 1528 1529 1529 1530 1531 1531 1532 1532 1533 1534 1535 1535 1535 1536 1537 1538 1539 1540 1541 1542 1542 1543 1542 1542 1542 1541 1542 1542 1542 1542 1542 1541 1540 1541 1542 1542 1544 1546 1547 1547 1547 1548 1548 1549 1549 1549
1454 1455 1457 1460 1462 1464 1467 1469 1471 1473 1475 1477 1480 1483 1485 1488 1490 1493 1495 1497 1500 1501 1502 1504 1506 1507 1508 1509 1510 1511 1512 1513 1515 1517 1519 1520 1522 1524 1524 1525 1525 1525 1526 1527 1527 1528 1528 1530 1530 1530 1531 1531 1531 1532 1533 1535 1536 1537 1537 1537 1537 1536 1536 1536 1536 1536 1536 1537 1536 1536 1535 1536 1537 1537 1537 1539 1541 1543 1543 1543 1543 1544 1544 1544 1544
1452 1453 1455 1457 1459 1461 1464 1465 1467 1470 1472 1475 1478 1480 1481 1483 1486 1489 1492 1494 1496 1497 1499 1500 1502 1503 1504 1505 1506 1507 1507 1509 1511 1513 1514 1516 1518 1520 1521 1521 1522 1523 1523 1523 1524 1524 1525 1526 1526 1526 1527 1527 1527 1528 1529 1530 1531 1531 1531 1531 1530 1530 1530 1530 1529 1530 1531 1531 1529 1529 1531 1532 1531 1531 1533 1534 1535 1536 1537 1538 1538 1539 1540 1540 1541
1449 1451 1452 1454 1456 1458 1460 1462 1465 1467 1470 1472 1475 1476 1478 1480 1482 1485 1488 1490 1492 1493 1495 1496 1497 1499 1500 1502 1503 1503 1504 1505 1507 1509 1510 1512 1515 1517 1518 1519 1520 1520 1520 1520 1521 1521 1522 1523 1523 1523 1523 1523 1523 1524 1525 1526 1526 1526 1525 1524 1524 1524 1524 1523 1523 1524 1525 1525 1524 1524 1525 1526 1526 1527 1528 1529 1529 1530 1531 1533 1534 1535 1536 1537 1538
1447 1448 1449 1451 1453 1455 1456 1459 1461 1464 1467 1469 1471 1473 1475 1477 1479 1482 1484 1486 1488 1490 1491 1493 1494 1495 1497 1498 1499 1499 1500 1502 1503 1504 1506 1509 1512 1514 1515 1516 1517 1517 1517 1517 1517 1518 1519 1519 1519 1519 1519 1519 1520 1521 1521 1522 1522 1521 1520 1519 1519 1520 1517 1516 1517 1518 1520 1520 1519 1519 1520 1521 1522 1523 1523 1524 1524 1526 1528 1529 1529 1531 1532 1532 1533
1444 1445 1447 1448 1450 1452 1453 1456 1458 1461 1464 1465 1467 1469 1471 1474 1476 1478 1480 1482 1484 1485 1487 1488 1490 1492 1493 1494 1495 1495 1497 1499 1500 1501 1503 1506 1509 1511 1512 1513 1513 1512 1512 1513 1514 1515 1515 1515 1514 1515 1514 1515 1516 1517 1519 1520 1519 1517 1516 1515 1515 1514 1510 1509 1512 1514 1514 1515 1514 1514 1515 1516 1517 1517 1518 1519 1519 1522 1523 1522 1521 1523 1524 1525 1526
1441 1442 1444 1445 1448 1449 1451 1453 1455 1458 1460 1461 1463 1466 1469 1471 1474 1475 1477 1479 1480 1482 1483 1485 1487 1488 1489 1491 1491 1492 1494 1496 1498 1499 1501 1504 1506 1507 1508 1509 1508 1508 1508 1510 1511 1511 1510 1510 1510 1511 1511 1511 1513 1515 1516 1517 1515 1514 1512 1511 1511 1507 1502 1504 1509 1509 1508 1509 1510 1510 1510 1510 1510 1511 1512 1512 1514 1516 1516 1514 1514 1516 1517 1517 1518
1438 1440 1441 1443 1445 1447 1449 1450 1452 1454 1456 1458 1461 1464 1466 1468 1471 1473 1474 1476 1477 1479 1481 1482 1484 1485 1486 1488 1489 1490 1492 1494 1496 1497 1499 1502 1503 1504 1505 1504 1503 1503 1505 1507 1507 1506 1506 1506 1507 1507 1507 1508 1510 1511 1511 1512 1511 1509 1509 1509 1507 1499 1496 1501 1505 1503 1502 1503 1503 1503 1503 1503 1503 1504 1504 1506 1507 1508 1508 1508 1509 1509 1509 1509 1511
1435 1438 1439 1441 1443 1445 1446 1447 1449 1451 1453 1456 1459 1461 1463 1465 1468 1469 1471 1473 1475 1477 1479 1480 1481 1482 1484 1485 1487 1488 1489 1491 1493 1494 1497 1499 1500 1501 1501 1500 1499 1501 1502 1502 1502 1501 1502 1503 1503 1504 1504 1505 1505 1506 1506 1506 1505 1505 1506 1504 1498 1493 1495 1499 1499 1497 1498 1497 1496 1496 1495 1495 1496 1497 1497 1498 1500 1500 1500 1501 1502 1501 1501 1503 1504
1434 1436 1437 1438 1440 1442 1443 1445 1446 1449 1451 1454 1456 1459 1460 1462 1465 1466 1468 1470 1472 1474 1475 1477 1478 1479 1481 1482 1484 1485 1486 1488 1490 1491 1493 1495 1497 1497 1497 1496 1497 1499 1498 1498 1497 1497 1498 1499 1500 1500 1500 1500 1501 1501 1501 1500 1500 1500 1499 1496 1491 1491 1494 1495 1492 1492 1493 1491 1489 1488 1487 1488 1489 1489 1489 1490 1491 1492 1493 1494 1495 1496 1497 1497 1498
1431 1433 1434 1436 1437 1439 1440 1442 1444 1446 1449 1451 1454 1456 1458 1460 1462 1464 1466 1467 1469 1470 1472 1474 1475 1476 1478 1479 1480 1482 1483 1485 1486 1488 1490 1491 1492 1493 1492 1493 1494 1495 1494 1493 1493 1493 1494 1495 1495 1496 1496 1496 1496 1496 1495 1495 1495 1493 1491 1489 1488 1489 1489 1488 1486 1485 1484 1482 1481 1480 1478 1479 1480 1480 1481 1482 1482 1485 1487 1488 1491 1493 1493 1493 1494
1428 1430 1432 1433 1434 1436 1438 1439 1441 1444 1446 1448 1451 1453 1455 1457 1459 1461 1462 1464 1465 1467 1468 1470 1472 1473 1475 1476 1477 1479 1480 1482 1483 1484 1486 1487 1487 1487 1488 1489 1490 1490 1490 1488 1488 1489 1490 1491 1491 1491 1492 1491 1491 1491 1490 1489 1488 1486 1485 1485 1484 1484 1483 1481 1479 1476 1474 1474 1473 1471 1469 1470 1471 1471 1472 1473 1475 1479 1481 1484 1487 1489 1490 1491 1492
1426 1427 1429 1431 1432 1434 1435 1437 1439 1441 1443 1446 1448 1450 1452 1454 1456 1457 1459 1461 1462 1463 1465 1467 1469 1470 1472 1474 1475 1477 1478 1480 1481 1481 1482 1482 1483 1483 1484 1485 1486 1486 1485 1484 1485 1486 1486 1486 1487 1487 1487 1487 1486 1485 1485 1484 1482 1481 1480 1480 1478 1477 1476 1473 1470 1467 1466 1466 1464 1462 1461 1463 1464 1464 1465 1467 1470 1474 1477 1479 1481 1484 1486 1488 1489
1423 1425 1427 1428 1430 1431 1433 1435 1437 1439 1441 1443 1445 1447 1449 1451 1453 1454 1456 1458 1459 1460 1462 1464 1466 1468 1470 1471 1473 1475 1477 1478 1478 1478 1478 1478 1479 1480 1481 1481 1482 1482 1481 1481 1482 1483 1483 1482 1483 1483 1482 1482 1481 1480 1479 1478 1477 1476 1475 1474 1472 1470 1468 1464 1461 1459 1458 1456 1456 1456 1456 1458 1459 1461 1463 1466 1469 1471 1474 1476 1477 1479 1481 1483 1485
1422 1423 1425 1426 1428 1430 1431 1433 1435 1437 1439 1441 1443 1445 1446 1448 1450 1452 1453 1455 1457 1458 1460 1462 1464 1466 1468 1469 1472 1474 1474 1474 1473 1473 1474 1475 1476 1477 1478 1478 1479 1478 1478 1478 1479 1479 1479 1479 1478 1478 1478 1477 1476 1475 1473 1472 1471 1470 1469 1467 1465 1462 1459 1455 1452 1451 1451 1451 1452 1453 1454 1456 1457 1458 1460 1462 1462 1463 1466 1470 1473 1475 1477 1479 1480
1420 1421 1423 1425 1427 1428 1429 1431 1433 1435 1437 1439 1441 1442 1444 1446 1448 1449 1451 1452 1454 1456 1459 1460 1462 1464 1466 1467 1469 1470 1469 1469 1469 1470 1472 1472 1473 1474 1474 1475 1475 1476 1475 1475 1475 1475 1475 1475 1475 1474 1473 1473 1472 1471 1469 1467 1466 1464 1462 1461 1458 1455 1451 1448 1444 1443 1443 1445 1448 1451 1453 1455 1456 1454 1453 1453 1453 1454 1458 1463 1468 1470 1472 1475 1475
1419 1420 1422 1423 1425 1426 1428 1430 1431 1433 1435 1437 1438 1440 1442 1444 1446 1447 1449 1450 1452 1455 1457 1459 1461 1462 1463 1465 1465 1465 1465 1466 1467 1468 1469 1470 1471 1471 1472 1472 1473 1473 1473 1473 1473 1473 1472 1472 1471 1471 1469 1468 1467 1466 1465 1462 1460 1458 1456 1453 1451 1447 1444 1441 1439 1435 1434 1437 1441 1445 1446 1448 1449 1448 1445 1445 1446 1447 1449 1453 1457 1459 1462 1465 1465
1418 1419 1421 1422 1424 1425 1427 1428 1429 1431 1432 1434 1436 1438 1440 1442 1444 1445 1447 1449 1451 1453 1455 1457 1459 1460 1461 1462 1462 1462 1463 1464 1464 1465 1467 1468 1469 1469 1469 1470 1470 1470 1470 1470 1470 1470 1469 1468 1467 1466 1465 1464 1462 1461 1459 1457 1454 1452 1449 1446 1443 1440 1437 1434 1432 1429 1428 1429 1431 1434 1435 1436 1437 1437 1436 1435 1436 1436 1436 1440 1446 1449 1451 1452 1452
1418 1419 1420 1421 1422 1424 1425 1426 1427 1429 1431 1433 1435 1437 1439 1441 1443 1444 1446 1448 1450 1452 1454 1455 1457 1458 1459 1460 1460 1461 1462 1462 1463 1464 1465 1466 1467 1467 1467 1468 1468 1467 1467 1466 1466 1465 1465 1464 1463 1462 1460 1459 1457 1455 1453 1451 1448 1445 1442 1439 1437 1433 1429 1426 1423 1422 1421 1421 1420 1421 1422 1423 1423 1424 1425 1426 1426 1426 1427 1431 1437 1441 1442 1442 1443
1418 1418 1419 1420 1421 1422 1424 1425 1426 1428 1430 1432 1434 1436 1437 1439 1441 1443 1445 1446 1448 1450 1452 1453 1455 1456 1457 1458 1459 1459 1460 1461 1462 1462 1463 1464 1465 1465 1465 1465 1465 1464 1464 1463 1463 1462 1460 1459 1458 1457 1456 1454 1452 1450 1448 1445 1442 1438 1435 1432 1428 1425 1422 1418 1415 1414 1413 1411 1410 1409 1409 1409 1410 1412 1414 1416 1417 1418 1419 1422 1426 1429 1431 1432 1433
1418 1418 1419 1420 1421 1422 1423 1424 1426 1428 1429 1431 1433 1435 1436 1438 1440 1442 1444 1445 1447 1449 1450 1451 1453 1454 1456 1457 1457 1458 1459 1460 1460 1461 1461 1462 1463 1463 1462 1462 1462 1462 1461 1460 1460 1459 1457 1456 1455 1454 1452 1450 1447 1445 1442 1439 1436 1433 1429 1424 1420 1417 1414 1410 1407 1406 1405 1402 1401 1401 1400 1401 1401 1401 1402 1404 1406 1408 1409 1411 1414 1418 1420 1422 1425
1417 1418 1419 1420 1420 1422 1423 1425 1426 1428 1429 1431 1432 1434 1435 1437 1438 1441 1443 1445 1447 1448 1450 1451 1452 1454 1455 1456 1457 1458 1458 1459 1459 1459 1459 1460 1460 1460 1460 1459 1459 1459 1458 1457 1457 1456 1455 1454 1452 1451 1449 1447 1444 1441 1438 1435 1431 1427 1423 1418 1413 1409 1406 1403 1400 1398 1395 1394 1394 1394 1393 1393 1393 1393 1393 1394 1396 1398 1399 1401 1404 1408 1410 1414 1419
1417 1418 1419 1420 1421 1422 1423 1425 1426 1428 1430 1431 1433 1434 1436 1437 1439 1440 1442 1444 1446 1448 1449 1450 1452 1453 1454 1456 1456 1457 1457 1457 1458 1458 1458 1458 1458 1458 1457 1456 1456 1456 1456 1455 1454 1453 1452 1451 1450 1448 1446 1443 1441 1438 1434 1431 1427 1422 1417 1412 1407 1401 1397 1394 1390 1387 1385 1385 1384 1383 1383 1384 1384 1385 1385 1385 1386 1388 1390 1392 1396 1400 1402 1406 1411
1417 1418 1419 1420 1421 1422 1423 1425 1427 1428 1430 1432 1433 1435 1436 1438 1439 1441 1442 1444 1445 1447 1448 1450 1451 1453 1454 1455 1455 1456 1456 1456 1457 1457 1457 1456 1456 1456 1455 1455 1454 1454 1453 1452 1451 1450 1449 1448 1446 1445 1443 1440 1438 1435 1431 1427 1423 1418 1412 1406 1400 1394 1389 1383 1378 1375 1374 1374 1373 1372 1373 1374 1375 1376 1376 1376 1376 1377 1378 1381 1386 1390 1393 1397 1401
1417 1418 1419 1420 1421 1423 1424 1426 1428 1429 1431 1432 1434 1435 1437 1438 1440 1441 1443 1444 1445 1446 1448 1450 1451 1452 1453 1454 1454 1454 1455 1455 1455 1455 1455 1455 1454 1454 1454 1453 1452 1452 1451 1450 1448 1448 1446 1445 1443 1442 1440 1437 1435 1432 1427 1423 1418 1413 1408 1401 1394 1387 1380 1374 1368 1365 1363 1363 1362 1363 1364 1365 1365 1366 1367 1367 1366 1367 1367 1370 1374 1378 1382 1388 1394
1417 1418 1420 1421 1422 1424 1425 1427 1429 1430 1432 1433 1435 1436 1438 1439 1441 1442 1443 1445 1446 1447 1448 1449 1450 1451 1452 1452 1452 1452 1452 1452 1452 1453 1453 1453 1453 1452 1452 1451 1450 1449 1448 1447 1446 1444 1443 1442 1441 1439 1437 1435 1432 1428 1424 1419 1414 1409 1403 1397 1389 1381 1372 1365 1360 1357 1354 1353 1354 1354 1355 1355 1356 1357 1358 1358 1358 1358 1359 1361 1365 1370 1376 1382 1388
1419 1420 1421 1423 1424 1425 1427 1428 1430 1431 1432 1434 1435 1437 1438 1440 1442 1443 1444 1445 1446 1447 1448 1448 1448 1450 1450 1450 1450 1450 1451 1451 1452 1452 1452 1451 1450 1450 1449 1448 1447 1446 1445 1445 1444 1442 1440 1439 1438 1436 1434 1432 1429 1426 1421 1417 1412 1405 1399 1392 1384 1375 1365 1356 1350 1347 1345 1344 1345 1346 1347 1348 1349 1350 1351 1350 1350 1352 1353 1354 1356 1361 1370 1377 1384
1421 1422 1423 1425 1426 1427 1428 1429 1430 1432 1433 1434 1436 1437 1439 1440 1442 1443 1444 1445 1446 1447 1447 1447 1448 1449 1449 1449 1449 1450 1450 1451 1451 1450 1450 1449 1448 1447 1447 1446 1445 1444 1443 1442 1441 1439 1438 1437 1435 1434 1432 1430 1427 1424 1420 1415 1409 1403 1397 1389 1381 1371 1360 1350 1342 1339 1338 1338 1338 1339 1340 1341 1343 1344 1344 1343 1342 1343 1345 1348 1351 1356 1363 1372 1381
1422 1423 1424 1425 1426 1426 1427 1428 1429 1431 1432 1433 1434 1436 1437 1439 1440 1441 1442 1443 1444 1445 1446 1447 1448 1449 1449 1449 1449 1450 1450 1450 1449 1448 1448 1447 1446 1445 1444 1444 1443 1442 1441 1440 1438 1437 1435 1434 1433 1432 1431 1428 1425 1422 1419 1414 1409 1403 1397 1390 1381 1372 1361 1349 1339 1335 1334 1334 1334 1334 1335 1336 1337 1338 1338 1337 1336 1335 1334 1338 1347 1356 1362 1368 1377
1423 1423 1424 1424 1425 1426 1427 1428 1429 1430 1431 1432 1433 1434 1435 1437 1438 1439 1440 1441 1442 1444 1444 1446 1447 1448 1448 1448 1448 1449 1448 1447 1446 1446 1445 1444 1444 1444 1442 1441 1440 1439 1438 1437 1435 1433 1432 1432 1431 1430 1429 1427 1424 1421 1418 1414 1410 1405 1399 1392 1385 1377 1365 1352 1342 1337 1335 1333 1332 1331 1332 1332 1333 1334 1333 1331 1334 1339 1340 1339 1343 1352 1361 1368 1377
1423 1423 1423 1424 1425 1425 1426 1427 1428 1429 1431 1432 1433 1434 1435 1436 1437 1438 1439 1440 1442 1442 1443 1444 1445 1446 1446 1446 1446 1446 1445 1444 1444 1444 1443 1443 1442 1442 1440 1439 1437 1436 1435 1434 1432 1431 1430 1430 1429 1428 1427 1426 1423 1421 1418 1415 1411 1407 1401 1395 1389 1381 1370 1358 1349 1346 1343 1339 1335 1333 1333 1332 1331 1334 1335 1332 1332 1341 1352 1354 1352 1356 1365 1375 1385
1423 1423 1423 1424 1425 1425 1427 1428 1429 1430 1431 1432 1433 1434 1435 1435 1436 1438 1439 1440 1440 1441 1442 1442 1443 1443 1443 1443 1443 1443 1442 1442 1442 1442 1441 1441 1440 1439 1437 1436 1434 1433 1433 1431 1429 1428 1428 1428 1427 1426 1425 1424 1422 1420 1418 1415 1412 1408 1405 1399 1393 1386 1377 1367 1359 1356 1354 1351 1347 1343 1343 1342 1341 1343 1347 1347 1343 1347 1358 1366 1367 1370 1377 1386 1395
1423 1424 1425 1425 1426 1427 1428 1428 1429 1430 1431 1432 1433 1433 1434 1435 1436 1438 1439 1439 1440 1440 1441 1441 1442 1442 1442 1441 1440 1440 1440 1440 1440 1440 1439 1439 1438 1436 1434 1433 1432 1431 1430 1429 1427 1427 1427 1426 1425 1425 1424 1423 1422 1420 1418 1416 1413 1410 1407 1403 1397 1391 1384 1376 1369 1365 1363 1360 1356 1352 1351 1353 1355 1357 1361 1363 1364 1366 1372 1377 1380 1383 1389 1396 1403
1424 1426 1426 1427 1427 1428 1428 1429 1430 1431 1432 1433 1434 1434 1435 1436 1437 1438 1439 1439 1440 1440 1440 1440 1440 1440 1439 1439 1438 1438 1439 1439 1439 1439 1438 1437 1436 1434 1432 1431 1430 1429 1428 1426 1426 1426 1425 1425 1424 1423 1423 1422 1421 1420 1418 1416 1414 1411 1408 1404 1400 1394 1389 1383 1378 1374 1371 1368 1365 1361 1358 1359 1362 1365 1368 1371 1375 1379 1384 1388 1391 1395 1400 1405 1410
1425 1426 1427 1427 1428 1429 1430 1431 1432 1432 1433 1434 1435 1435 1436 1437 1437 1438 1438 1439 1439 1439 1439 1438 1438 1437 1437 1437 1438 1438 1439 1439 1438 1438 1437 1436 1434 1432 1430 1430 1429 1428 1426 1425 1425 1425 1425 1424 1423 1422 1422 1421 1420 1419 1417 1415 1414 1412 1410 1406 1403 1398 1394 1390 1386 1382 1379 1376 1373 1370 1368 1368 1369 1371 1373 1376 1381 1386 1390 1395 1399 1403 1407 1411 1413
1427 1427 1428 1429 1430 1431 1432 1433 1433 1434 1434 1435 1435 1436 1436 1437 1437 1438 1438 1438 1438 1437 1437 1437 1437 1437 1437 1437 1437 1437 1437 1437 1437 1436 1435 1435 1433 1432 1430 1429 1428 1427 1426 1425 1426 1425 1425 1424 1422 1422 1421 1420 1419 1418 1417 1415 1414 1412 1411 1408 1405 1402 1399 1396 1392 1388 1386 1384 1382 1379 1378 1378 1379 1380 1381 1384 1387 1391 1395 1399 1403 1407 1409 1412 1413
1429 1430 1430 1431 1432 1433 1434 1434 1434 1435 1435 1435 1436 1436 1436 1437 1437 1438 1438 1438 1438 1437 1437 1437 1437 1437 1437 1437 1437 1436 1436 1436 1435 1434 1434 1433 1432 1431 1430 1429 1428 1427 1426 1426 1426 1426 1424 1423 1422 1421 1420 1420 1419 1418 1417 1415 1414 1413 1411 1409 1407 1405 1403 1400 1398 1395 1392 1391 1389 1388 1387 1386 1387 1388 1390 1391 1393 1396 1398 1401 1404 1407 1410 1412 1414
1431 1432 1432 1433 1433 1434 1435 1435 1436 1436 1436 1436 1437 1437 1437 1438 1438 1438 1439 1439 1439 1438 1438 1438 1437 1437 1437 1436 1436 1436 1435 1435 1434 1433 1432 1431 1431 1431 1430 1429 1428 1427 1426 1427 1427 1426 1424 1423 1421 1420 1420 1419 1419 1418 1417 1416 1414 1413 1412 1410 1409 1407 1405 1403 1401 1399 1398 1396 1395 1394 1394 1394 1393 1394 1395 1396 1398 1399 1401 1403 1406 1408 1410 1413 1415
1433 1433 1434 1434 1435 1436 1437 1437 1438 1438 1438 1439 1438 1438 1438 1439 1439 1440 1440 1440 1440 1439 1439 1439 1438 1437 1437 1436 1435 1435 1434 1433 1432 1431 1431 1430 1430 1430 1430 1429 1428 1427 1427 1427 1426 1426 1424 1423 1422 1421 1420 1420 1419 1418 1417 1416 1415 1414 1413 1412 1411 1409 1408 1406 1404 1403 1402 1401 1400 1399 1399 1399 1399 1399 1399 1400 1401 1403 1404 1406 1408 1410 1412 1414 1416
1436 1436 1436 1437 1437 1438 1439 1439 1439 1440 1440 1440 1440 1440 1440 1440 1440 1441 1441 1441 1441 1441 1440 1440 1439 1438 1437 1436 1435 1434 1434 1433 1432 1431 1430 1430 1430 1429 1429 1428 1427 1427 1427 1427 1426 1425 1423 1422 1421 1421 1420 1420 1419 1418 1417 1417 1416 1414 1413 1413 1412 1411 1409 1408 1407 1406 1404 1404 1403 1402 1402 1402 1402 1402 1402 1403 1404 1405 1406 1408 1410 1412 1413 1415 1416